Regional Weather Roundup
Issued by NWS State College, PA

Home | Current Version | Previous Version | Text Only | Print | Product List | Glossary On
Versions: 1 2 3 4 5 6 7 8 9 10 11 12 13 14 15 16 17 18 19 20 21 22 23 24 25 26 27 28 29 30 31 32 33 34 35 36 37 38 39 40 41 42 43 44 45 46 47 48 49 50
000
ASUS41 KCTP 310110
RWRCTP

REGIONAL WEATHER ROUNDUP
NATIONAL WEATHER SERVICE STATE COLLEGE PA
800 PM EST FRI JAN 30 2015

Note: "fair" indicates few or no clouds below 12,000 feet with no
significant weather and/or obstructions to visibility.

* = STATION THAT DOES NOT REPORT PRECIPITATION /E.G. RAIN...SNOW...ETC/
    THUNDER OR FOG.

PAZ002>004-007>009-013>016-020>023-029>032-310200-
WESTERN PENNSYLVANIA

CITY           SKY/WX    TMP DP  RH WIND       PRES   REMARKS
ERIE           CLOUDY    15   5  64 N12       30.39S WCI   2
MEADVILLE      LGT SNOW  12   7  80 NW10      30.31S VSB 1   WCI  -1
FRANKLIN*      CLOUDY    10   5  79 NW5       30.31R WCI   2
NEW CASTLE     FLURRIES  12   6  77 W7        30.39S WCI   1
BEAVER COUNTY  NOT AVBL
BUTLER*        CLOUDY    14   3  62 W12G17    30.36R WCI   0
PITTSBURGH INT FLURRIES  14   4  64 NW14      30.36S WCI  -1
PITTSBURGH     CLOUDY    14   1  56 NW9       30.34S WCI   2
INDIANA*       CLOUDY    14   7  73 NW9G24    30.34R WCI   2
LATROBE        MOCLDY    14   7  73 W12       30.36R WCI   0
WASHINGTON CO* MOCLDY    16   9  73 W3        30.38F
$$

PAZ004>006-010>012-017>019-024>028-033>037-041-042-045-046-049>053-310200-
CENTRAL PENNSYLVANIA

CITY           SKY/WX    TMP DP  RH WIND       PRES   REMARKS
BRADFORD       CLOUDY     5  -2  72 NW14      30.17S HAZE    WCI -12
DUBOIS         CLOUDY     9   2  73 NW10G20   30.23R WCI  -5
CLEARFIELD     CLOUDY    10   1  67 W12       30.24R WCI  -5
JOHNSTOWN      LGT SNOW  10   5  80 W23       30.17R VSB 3/4 WCI -10
ALTOONA        PTCLDY    14   3  61 NW17G31   30.22R WCI  -3
STATE COLLEGE  FLURRIES  14   3  62 NW10G28   30.24R WCI   1
WILLIAMSPORT   PTCLDY    17   2  51 NW16G22   30.22R WCI   2
SELINSGROVE    CLOUDY    20   5  52 NW15      30.22R WCI   6
FT INDIANTOWN  MOCLDY    21   5  49 W13G23    30.17R WCI   9
CAPITAL CITY   MOCLDY    21   8  57 NW17G29   30.20R WCI   7
HARRISBURG     PTCLDY    22   6  50 NW23G36   30.19R WCI   6
YORK           CLEAR     21   7  54 NW15G31   30.19R WCI   8
$$

PAZ038>040-043-044-047-048-054-055-060>062-067>071-310200-
EASTERN PENNSYLVANIA

CITY           SKY/WX    TMP DP  RH WIND       PRES   REMARKS
SCRANTON       FLURRIES  16   6  65 N10       30.11R WCI   4
MOUNT POCONO   LGT SNOW  10   2  69 NW24G41   29.95R WCI -10
ALLENTOWN      CLOUDY    21   7  54 NW17G28   30.09R WCI   7
QUAKERTOWN*    PTCLDY    23   7  50 NW18G28   30.08R WCI   9
READING        CLOUDY    22  11  62 NW30G37   30.12R WCI   4
LANCASTER      CLOUDY    22   8  55 NW24G32   30.14R WCI   5
COATESVILLE    MOCLDY    25  16  68 NW16G25   30.08R WCI  12
POTTSTOWN      MOCLDY    24   9  52 NW20G29   30.10R WCI  10
BLUE BELL      PTCLDY    28  12  50 NW14G24   30.06R
DOYLESTOWN     MOCLDY    22  10  60 NW13G26   30.05R WCI  10
WILLOW GROVE   NOT AVBL
NORTH PHILA    CLOUDY    29  11  47 NW26G35   30.07R WCI  14
PHILADELPHIA   MOCLDY    30  11  45 NW26G37   30.08R
$$


USA.gov is the U.S. government's official web portal to all federal, state and local government web resources and services.